WY1U-1 Weather Reports


time (UTC)temp
F
wind
direction
speed
knots
gust
knots
rain 1hr
in
rain 24hr
in
rain mn
in
humidity
%
barometer
mb
20260906220151 68 282 0.0 2.6 0.00 0.33 0.14 82 1015.5
20260906210151 65 271 1.7 3.5 0.02 0.33 0.14 90 1015.5
20260906200151 72 278 0.0 1.7 0.00 0.31 0.12 68 1015.0
20260906190151 73 341 0.0 1.7 0.00 0.31 0.12 68 1015.0
20260906180151 68 170 0.0 1.7 0.00 0.31 0.12 84 1015.7
20260906170151 66 81 0.9 1.7 0.03 0.31 0.12 93 1016.0
20260906160151 66 24 0.0 2.6 0.03 0.27 0.08 89 1015.9
20260906140151 63 7 0.0 2.6 0.00 0.23 0.04 95 1016.1
20260906120150 62 0 0.0 0.0 0.03 0.23 0.04 95 1015.2
20260906100150 61 0 0.0 0.0 0.00 0.20 0.01 95 1013.8
20260906093150 61 0 0.0 0.0 0.00 0.20 0.01 95 1013.5
20260906090152 61 0 0.0 0.0 0.00 0.20 0.01 95 1013.2
20260906083150 61 0 0.0 0.0 0.00 0.20 0.01 95 1013.4
20260906080151 62 0 0.0 0.0 0.00 0.20 0.01 95 1013.2
20260906070151 64 23 0.0 1.7 0.00 0.20 0.01 95 1013.2
20260906060150 65 0 0.0 0.0 0.01 0.20 0.01 95 1013.3
20260906053150 65 0 0.0 0.0 0.01 0.20 0.01 95 1013.2
20260906050150 65 0 0.0 0.0 0.00 0.18 0.00 95 1013.3
20260906040150 66 0 0.0 0.0 0.00 0.18 0.00 94 1013.0
20260906033150 66 63 0.0 3.5 0.00 0.18 0.18 94 1012.9
20260906030150 67 0 0.0 0.0 0.00 0.18 0.18 94 1012.8
20260906020151 67 0 0.0 0.0 0.04 0.18 0.18 92 1012.6
20260906010151 69 0 0.0 0.0 0.12 0.12 0.12 86 1012.2
20260906000152 70 101 0.0 1.7 0.00 0.00 0.00 77 1011.4
20260905230151 73 0 0.0 0.0 0.00 0.00 0.00 70 1010.9